STARLINK-4008, 52622

Orbit data source: Space-Track

STARLINK-4008, 52622 is a payload satellite owned by SpaceX/Seattle (US) in LEO that was launched on Sat, 14 May 2022 UTC via an FALCON 9 launch vehicle from the Air Force Eastern Test Range (AFETR). Payload-class satellites include a variety of spacecraft equipped with specific instruments for various scientific and technological missions. These include communications satellites like Starlink; space stations such as the ISS; scientific satellites like the Hubble; Earth observation satellites from companies like Planet Labs, Umbra, and HawkEye 360; GPS; miniature CubeSats for education and research; and military/defense satellites.

Loading next visibility...
Identifier
52622, 2022-052AA
Orbit
LEO
Country
Flag of USUS
Related business
Manufacturer
SpaceX/Seattle
Mission
Operational Commercial Communications
Bus & Motor
STARLINK, Unknown motor
Mass
297 kg wet, ~275 kg dry
Launch date (UTC)
2022-05-14 (4 years ago)
Launch vehicle
FALCON 9
Launch site
Air Force Eastern Test Range (AFETR)
Object type
Payload
Rocket body
Debris
Shape & HBR
Box + 1 Pan, 10.1 m
Radar Cross Section
13.562 m², Large (>1 m²)

Expand to show TLE details & history
Last TLE update: 2 days ago

TLE from 2 days ago
0 STARLINK-4008
1 52622U 22052AA  26171.30721532 -.00000298  00000-0 -62021-6 0  9996
2 52622  53.1595 183.3381 0001164  82.6129 277.4995 15.08836096226272
Epoch: 2026-06-20T07:22Z
TLE epoch observation values (Epoch: 2026-06-20T07:22:23.403Z)
Latitude
-0°
Longitude
164.21687°
Altitude
540.542 km
Speed
7.593 km/s
True Right ascension
12h 13m 21s
True Declination
0° 00' 00"
Sunlit
Object was in daylight at epoch
Visualization orbit readout
Latitude
Unknown
Longitude
Unknown
Altitude
Unknown
Speed
Unknown
Apparent Right ascension
Unknown
Apparent Declination
Unknown
Sunlit
N/A
Visualization observer readout
Local Sidereal Time
21:27:10
Azimuth
Unknown
Elevation
Unknown
Doppler factor
Unknown
Orbital elements
Apogee altitude
540.815 km
Perigee altitude
539.204 km
Semi-major axis
6,918.147 km
Eccentricity
0.00012
Inclination
53.1595°
RAAN
183.3381°
Arg. of periapsis
82.6129°
True anomaly
277.48628°
Mean anomaly
277.4995°
Eccentric anomaly
277.49289°
Mean motion
3.77189 °/min
Orbital period
95.44 mins
BSTAR
-6.2021e-7
Loading maneuver chart data...
Computing Atmospheric mass density...
Loading historical data...
Loading historical data...
Loading historical data...
Loading historical data...
Loading historical data...
Loading historical data...
Loading historical data...

Documentation

Showing up to 5 results
|